GW0118 Weather Reports


time (UTC)temp
C
wind
direction
speed
KPH
gust
KPH
rain 1hr
cm
rain 24hr
cm
rain mn
cm
humidity
%
barometer
mb
20260510123100 7 218 16.1 41.8 0.38 1.17 0.74 91 1013.2
20260510121559 8 262 25.7 46.7 0.25 1.02 0.58 86 1013.0
20260510120057 11 264 12.9 25.7 0.00 0.76 0.33 78 1011.9
20260510114558 12 141 9.7 27.4 0.00 0.76 0.33 77 1012.1
20260510113104 11 216 11.3 22.5 0.00 0.76 0.33 81 1012.2
20260510111600 11 199 12.9 27.4 0.00 0.76 0.33 82 1012.4
20260510110100 10 231 6.4 19.3 0.00 0.76 0.33 86 1012.5
20260510104605 10 347 16.1 29.0 0.00 0.76 0.33 84 1012.8
20260510103059 11 149 14.5 25.7 0.00 0.74 0.30 81 1012.7
20260510101601 11 251 8.0 20.9 0.00 0.74 0.30 83 1012.8
20260510100058 10 226 11.3 27.4 0.00 0.74 0.30 83 1012.8
20260510094613 10 235 3.2 11.3 0.03 0.74 0.30 87 1012.9
20260510093119 10 250 4.8 20.9 0.08 0.74 0.30 88 1013.1
20260510091601 9 229 4.8 9.7 0.10 0.74 0.30 89 1013.1
20260510090059 8 205 8.0 16.1 0.13 0.74 0.30 89 1013.2
20260510084603 8 221 9.7 20.9 0.08 0.71 0.28 88 1013.4
20260510083103 8 262 9.7 24.1 0.03 0.64 0.20 88 1013.4
20260510081559 9 246 9.7 20.9 0.00 0.64 0.18 86 1013.5
20260510080100 9 230 12.9 24.1 0.00 0.61 0.18 86 1013.3
20260510074600 9 257 8.0 20.9 0.00 0.61 0.18 87 1013.2
20260510073100 9 210 9.7 24.1 0.00 0.61 0.18 88 1013.1
20260510071558 8 173 8.0 22.5 0.00 0.61 0.18 90 1013.1
20260510070058 8 237 9.7 20.9 0.00 0.61 0.18 90 1012.9
20260510064557 8 169 9.7 19.3 0.00 0.61 0.18 92 1012.9
20260510063059 7 226 9.7 20.9 0.00 0.61 0.18 92 1012.7
20260510061557 7 217 8.0 19.3 0.00 0.61 0.18 93 1012.7
20260510054559 7 224 6.4 27.4 0.00 0.61 0.18 93 1012.7
20260510053105 7 224 6.4 14.5 0.00 0.61 0.18 93 1012.4
20260510051558 7 232 6.4 16.1 0.00 0.61 0.18 93 1012.5
20260510050058 7 264 8.0 16.1 0.00 0.61 0.18 93 1012.4
20260510044557 7 209 3.2 19.3 0.00 0.61 0.18 93 1012.5
20260510043105 7 212 4.8 14.5 0.00 0.61 0.18 92 1012.6
20260510041600 7 194 4.8 17.7 0.00 0.61 0.18 92 1012.4
20260510040101 7 232 12.9 25.7 0.00 0.61 0.18 92 1012.5
20260510034557 7 247 17.7 30.6 0.00 0.61 0.18 92 1012.5
20260510033112 7 248 16.1 24.1 0.00 0.61 0.18 92 1012.6
20260510031558 7 214 12.9 25.7 0.00 0.61 0.18 92 1012.8
20260510030104 7 162 11.3 27.4 0.00 0.61 0.18 92 1012.8
20260510024610 7 312 6.4 22.5 0.00 0.61 0.18 92 1012.8
20260510023058 7 260 8.0 17.7 0.00 0.61 0.18 92 1012.7
20260510020100 7 239 11.3 19.3 0.00 0.61 0.18 92 1012.9
20260510014557 7 229 6.4 12.9 0.00 0.61 0.18 92 1013.1
20260510013057 7 264 11.3 25.7 0.00 0.61 0.18 92 1013.3
20260510011557 7 233 12.9 24.1 0.00 0.61 0.18 92 1013.4
20260510010109 7 263 8.0 20.9 0.00 0.61 0.18 92 1013.6
20260510004602 7 250 11.3 22.5 0.00 0.61 0.18 91 1013.6
20260510003103 7 224 6.4 16.1 0.00 0.61 0.18 92 1013.8
20260510001600 7 266 3.2 11.3 0.00 0.61 0.18 92 1013.8
20260509234601 7 229 3.2 17.7 0.00 0.61 0.18 92 1013.8
20260509233101 7 240 9.7 19.3 0.03 0.58 0.15 92 1013.5
20260509231601 7 257 9.7 29.0 0.15 0.58 0.15 92 1013.7
20260509230059 7 256 11.3 25.7 0.15 0.58 0.15 92 1013.6
20260509224600 8 221 14.5 40.2 0.15 0.58 0.15 92 1013.5
20260509223104 8 293 29.0 43.5 0.10 0.56 0.10 87 1013.6
20260509221603 10 172 8.0 25.7 0.00 0.43 0.00 88 1012.7
20260509214628 10 203 11.3 22.5 0.00 0.43 0.43 89 1013.0
20260509213103 10 246 9.7 22.5 0.00 0.43 0.43 89 1013.0
20260509211601 9 189 8.0 17.7 0.00 0.43 0.43 90 1012.8
20260509210107 9 190 1.6 4.8 0.00 0.43 0.43 91 1012.7
20260509204558 9 0 0.0 4.8 0.00 0.43 0.43 90 1012.6
20260509203115 10 0 0.0 1.6 0.00 0.43 0.43 90 1012.4
20260509201559 10 0 0.0 3.2 0.00 0.43 0.43 91 1012.3
20260509200100 10 0 0.0 3.2 0.00 0.43 0.43 91 1012.1
20260509194558 10 0 0.0 4.8 0.00 0.43 0.43 91 1012.0
20260509193111 10 135 0.0 1.6 0.00 0.43 0.43 90 1011.9
20260509191608 10 0 0.0 4.8 0.00 0.43 0.43 89 1011.8
20260509190100 10 150 0.0 3.2 0.00 0.43 0.43 87 1011.7
20260509184601 10 233 3.2 8.0 0.08 0.43 0.43 85 1011.7
20260509183100 10 228 1.6 8.0 0.18 0.43 0.43 86 1011.7
20260509181558 10 254 4.8 12.9 0.18 0.43 0.43 85 1011.5
20260509180106 10 257 9.7 16.1 0.18 0.41 0.41 85 1011.7
20260509174622 11 233 9.7 24.1 0.13 0.36 0.36 86 1011.8
20260509173100 11 225 11.3 20.9 0.03 0.25 0.25 83 1011.1
20260509171600 12 248 14.5 24.1 0.03 0.25 0.25 81 1010.8
20260509170109 13 252 9.7 19.3 0.00 0.20 0.20 78 1010.9
20260509164600 14 270 11.3 19.3 0.00 0.20 0.20 73 1010.5
20260509163101 15 160 9.7 24.1 0.00 0.20 0.20 71 1010.3
20260509161602 14 248 3.2 12.9 0.00 0.20 0.20 74 1010.2
20260509160058 13 157 3.2 16.1 0.03 0.20 0.20 79 1010.3
20260509154600 12 120 1.6 8.0 0.05 0.23 0.20 83 1010.7
20260509153117 11 118 3.2 6.4 0.10 0.23 0.20 88 1011.1
20260509151600 10 147 1.6 11.3 0.20 0.23 0.20 90 1011.6
20260509150058 10 283 9.7 32.2 0.18 0.18 0.18 89 1011.9
20260509144600 11 235 11.3 29.0 0.15 0.46 0.15 88 1011.7
20260509143059 12 234 29.0 49.9 0.08 0.38 0.08 81 1011.0
20260509141557 16 243 9.7 25.7 0.00 0.28 0.00 54 1010.3
20260509134557 17 130 6.4 25.7 0.00 0.41 0.00 52 1010.2
20260509133100 17 234 9.7 30.6 0.00 0.41 0.00 54 1010.2
20260509131600 17 188 11.3 29.0 0.00 0.41 0.00 54 1010.4
20260509130108 16 236 12.9 24.1 0.00 0.41 0.00 49 1010.6
20260509124601 16 120 11.3 37.0 0.00 0.46 0.00 54 1010.7